Weather History for Crestview, FL

Change the Weather History Date:

Sunday, July 28, 2013

  Actual Average Record
Temperature  
Mean Temperature 80 °F -  
Max Temperature 90 °F 92 °F 98 °F (1993)
Min Temperature 73 °F 71 °F 65 °F (1979)
Cooling Degree Days 16    
Growing Degree Days 30 (Base 50)    
Moisture  
Dew Point 73 °F    
Average Humidity 82    
Maximum Humidity 94    
Minimum Humidity 61    
Precipitation  
Precipitation 0.52 in - - ()
Sea Level Pressure  
Sea Level Pressure 29.97 in    
Wind  
Wind Speed 4 mph (South)    
Max Wind Speed 13 mph    
Max Gust Speed 26 mph    
Visibility 7 miles    
Events Fog , Rain , Thunderstorm    
Averages and records for this station are not official NWS values.
T = Trace of Precipitation, MM = Missing Value Source: NWS Daily Summary

Daily Weather History Graph

Daily Weather History Graph

Search for Another Location

Airport:

Trip Planner

Search our weather history database for the weather conditions in past years. The results will help you decide how hot, cold, wet, or windy it might be!

Date:

Astronomy

Jul. 28, 2013 Rise Set
Actual Time 6:01 AM CDT 7:43 PM CDT
Civil Twilight 5:34 AM CDT 8:09 PM CDT
Nautical Twilight 5:03 AM CDT 8:41 PM CDT
Astronomical Twilight 4:29 AM CDT 9:14 PM CDT
Moon 11:37 PM CDT (7/28) 12:11 PM CDT (7/28)
Length of Visible Light 14h 34m
Length of Day
13h 42m
Waning Gibbous, 60% of the Moon is Illuminated
Jul 28
Waning Gibbous
Jul 29
Last Quarter
Aug 6
New
Aug 14
First Quarter
Aug 20
Full

Hourly Weather History & Observations

Time (CDT) Temp. Heat Index Dew Point Humidity Pressure Visibility Wind Dir Wind Speed Gust Speed Precip Events Conditions
12:53 AM 75.0 °F - 73.0 °F 94% 29.94 in 3.0 mi Calm Calm - N/A   Overcast
1:53 AM 75.9 °F - 73.0 °F 91% 29.93 in 5.0 mi South 3.5 mph - N/A   Mostly Cloudy
2:53 AM 75.9 °F - 72.0 °F 87% 29.94 in 9.0 mi Calm Calm - N/A   Overcast
3:53 AM 75.0 °F - 70.0 °F 84% 29.92 in 10.0 mi SSE 4.6 mph - 0.00 in Rain Light Rain
4:53 AM 75.0 °F - 71.1 °F 87% 29.94 in 10.0 mi Calm Calm - 0.00 in   Overcast
5:53 AM 75.9 °F - 71.1 °F 85% 29.95 in 10.0 mi SSW 10.4 mph - N/A   Overcast
6:35 AM 75.2 °F - 71.6 °F 89% 29.98 in 2.5 mi SSW 5.8 mph - 0.01 in Rain Rain
6:53 AM 75.0 °F - 72.0 °F 90% 29.98 in 6.0 mi SW 8.1 mph - 0.03 in Rain Light Rain
7:04 AM 75.2 °F - 71.6 °F 89% 29.98 in 1.8 mi SW 8.1 mph 16.1 mph 0.04 in Rain Heavy Rain
7:22 AM 73.4 °F - 71.6 °F 94% 29.98 in 2.5 mi WSW 5.8 mph - 0.09 in Rain Rain
7:25 AM 75.2 °F - 71.6 °F 89% 29.99 in 1.0 mi West 5.8 mph - 0.15 in Rain , Thunderstorm Rain
7:31 AM 73.4 °F - 71.6 °F 94% 29.99 in 0.5 mi SW 6.9 mph - 0.23 in Fog , Rain , Thunderstorm Heavy Rain
7:43 AM 73.4 °F - 71.6 °F 94% 29.99 in 0.8 mi SSW 5.8 mph - 0.38 in Rain Heavy Rain
7:51 AM 73.4 °F - 71.6 °F 94% 29.98 in 1.2 mi SSW 5.8 mph - 0.44 in Rain Heavy Rain
7:53 AM 73.9 °F - 72.0 °F 93% 29.98 in 1.2 mi SW 4.6 mph - 0.45 in Rain Heavy Rain
8:10 AM 75.2 °F - 71.6 °F 89% 29.98 in 2.5 mi South 3.5 mph - 0.04 in Rain Rain
8:17 AM 75.2 °F - 73.4 °F 94% 29.97 in 5.0 mi SSE 3.5 mph - 0.04 in Rain Light Rain
8:53 AM 77.0 °F - 73.9 °F 90% 29.98 in 10.0 mi South 5.8 mph - 0.04 in   Mostly Cloudy
9:53 AM 79.0 °F - 75.0 °F 88% 29.98 in 10.0 mi South 4.6 mph - 0.00 in   Mostly Cloudy
10:17 AM 80.6 °F 85.4 °F 73.4 °F 79% 29.98 in 10.0 mi South 6.9 mph - N/A   Mostly Cloudy
10:24 AM 80.6 °F 85.4 °F 73.4 °F 79% 29.98 in 10.0 mi South 10.4 mph 26.5 mph N/A   Mostly Cloudy
10:53 AM 82.9 °F 89.4 °F 73.9 °F 74% 29.98 in 10.0 mi South 10.4 mph - N/A   Scattered Clouds
11:38 AM 84.2 °F 90.9 °F 73.4 °F 70% 29.99 in 10.0 mi Variable 3.5 mph - N/A   Mostly Cloudy
11:53 AM 86.0 °F 93.8 °F 73.9 °F 67% 29.99 in 10.0 mi SSE 4.6 mph - N/A   Mostly Cloudy
12:04 PM 84.2 °F 90.9 °F 73.4 °F 70% 29.99 in 10.0 mi South 6.9 mph - N/A   Mostly Cloudy
12:53 PM 86.0 °F 93.0 °F 73.0 °F 65% 29.98 in 10.0 mi South 5.8 mph - N/A   Overcast
1:53 PM 88.0 °F 95.6 °F 73.0 °F 61% 29.96 in 10.0 mi Calm Calm - N/A   Partly Cloudy
2:26 PM 87.8 °F 95.6 °F 73.4 °F 62% 29.97 in 10.0 mi ESE 4.6 mph - N/A   Mostly Cloudy
2:46 PM 87.8 °F 95.6 °F 73.4 °F 62% 29.96 in 10.0 mi ESE 5.8 mph - N/A   Overcast
2:53 PM 88.0 °F 96.5 °F 73.9 °F 63% 29.95 in 10.0 mi SE 3.5 mph - N/A   Overcast
3:53 PM 86.0 °F 93.8 °F 73.9 °F 67% 29.94 in 10.0 mi SSE 8.1 mph - N/A   Mostly Cloudy
4:53 PM 87.1 °F 94.5 °F 73.0 °F 63% 29.95 in 10.0 mi South 12.7 mph 20.7 mph N/A   Clear
5:53 PM 82.9 °F 89.4 °F 73.9 °F 74% 29.96 in 10.0 mi South 8.1 mph - N/A   Scattered Clouds
6:53 PM 82.0 °F 87.9 °F 73.9 °F 76% 29.97 in 10.0 mi South 5.8 mph - N/A   Partly Cloudy
7:53 PM 80.1 °F 84.5 °F 73.9 °F 81% 29.98 in 8.0 mi South 5.8 mph - N/A   Mostly Cloudy
8:53 PM 79.0 °F - 75.0 °F 88% 30.01 in 8.0 mi South 3.5 mph - N/A   Partly Cloudy
9:53 PM 79.0 °F - 75.0 °F 88% 30.02 in 8.0 mi South 3.5 mph - N/A   Partly Cloudy
10:53 PM 78.1 °F - 75.0 °F 90% 30.02 in 5.0 mi Calm Calm - N/A   Clear
11:53 PM 77.0 °F - 73.9 °F 90% 30.02 in 4.0 mi Calm Calm - N/A   Clear